Regional Weather Roundup
Issued by NWS

Home | Current Version | Previous Version | Text Only | Print | Product List | Glossary On
Versions: 1 2 3 4 5 6 7 8 9 10 11 12 13 14 15 16 17 18 19 20 21 22 23 24 25 26 27 28 29 30 31 32 33 34 35 36 37 38 39 40 41 42 43 44 45 46 47 48 49 50
000
ASUS46 KLOX 281312
RWRCA

SOUTHERN CALIFORNIA WEATHER ROUNDUP
NATIONAL WEATHER SERVICE OXNARD CALIFORNIA
600 AM PDT THU AUG 28 2014

NOTE: "FAIR" INDICATES FEW OR NO CLOUDS BELOW 12,000 FEET WITH NO
SIGNIFICANT WEATHER AND/OR OBSTRUCTIONS TO VISIBILITY.

  -  STATIONS PRECEEDED BY AN ASTERISK (*) ARE NOT NWS OR FAA
     STATIONS AND ARE NOT SUBJECT TO NWS AND FAA QUALITY CONTROL.

CAZ041-042-087-281400-
LA AND ORANGE COUNTY COASTAL AREAS


CITY           SKY/WX    TMP DP  RH WIND       PRES   REMARKS
L.A. DOWNTOWN  CLEAR     69  56  62 CALM      29.98S
L.A. AIRPORT   CLEAR     70  55  59 CALM      29.99S
LONG BEACH     CLEAR     71  56  58 CALM      29.98S

CITY           SKY/WX    TMP DP  RH WIND       PRES   REMARKS
AVALON           N/A     64 N/A N/A MISG        N/A
FULLERTON      CLEAR     69  57  65 CALM      29.98R
*GETTY CENTER    N/A     73  45  35 W1          N/A
HAWTHORNE      CLEAR     70  57  63 CALM      29.99S
*LEO CARRILLO    N/A     66  52  61 CALM        N/A
*LOS ALAMITOS  FAIR      65  58  78 CALM      29.99R
*REDONDO BEACH   N/A     66  61  84 CALM      29.98S
SANTA ANA      CLEAR     73  58  59 SW3       29.98S
STA MONICA APT CLEAR     69  55  60 CALM      29.99S
*UCLA            N/A     68  46  45 N3        29.97R

$$

CAZ547-548-048-281400-
LA COUNTY VALLEYS AND INLAND EMPIRE


CITY           SKY/WX    TMP DP  RH WIND       PRES   REMARKS
BURBANK        CLEAR     70  46  42 CALM      30.00S
VAN NUYS       CLEAR     70  45  40 CALM      30.01S

CITY           SKY/WX    TMP DP  RH WIND       PRES   REMARKS
CORONA AIRPORT SUNNY     58  51  77 CALM      30.02R
*CHATSWORTH      N/A     67  52  59 CALM      29.96S
CHINO            N/A    N/A N/A N/A MISG      30.02S
*CLAREMONT       N/A     67  46  46 N2          N/A
MARCH AFB      CLEAR     63  50  61 CALM      30.05R
*NORTHRIDGE      N/A     66  50  55 NW1         N/A
ONTARIO        CLEAR     72  52  49 N3        30.02R
*PASADENA        N/A     72  54  53 E1          N/A
RIVERSIDE      CLEAR     67  54  63 CALM      30.02R
SAN BERNARDINO NOT AVBL
*SAN RAFAEL HI   N/A     73  47  38 SW2         N/A
*WHITEMAN AP   NOT AVBL
*WHITTIER HILL   N/A     73  49  43 SE3         N/A
*WOODLAND HILL   N/A     64  45  48 SE1         N/A

$$

CAZ054-055-281400-
LA AND SAN BERNARDINO COUNTY MOUNTAINS


CITY           SKY/WX    TMP DP  RH WIND       PRES   REMARKS
*ACTON           N/A     59  42  54 N8          N/A
*BIG BEAR AIRP SUNNY     43  36  75 CALM      30.38S
*BIG PINES       N/A     58  35  41 CALM        N/A
*CHILAO          N/A     69  40  34 N2          N/A
MT WILSON NWS    N/A     68  37  32 W7G14       N/A
SANDBERG       CLEAR     71  38  29 N15       30.23S
*WARM SPRINGS    N/A     71  40  32 NW7         N/A

$$

CAZ028-029-059-060-099-281400-
ANTELOPE VALLEY AND SURROUNDING AREAS


CITY           SKY/WX    TMP DP  RH WIND       PRES   REMARKS
LANCASTER      CLEAR     63  41  44 E3        30.09R
PALMDALE       CLEAR     66  41  40 S7        30.10S

CITY           SKY/WX    TMP DP  RH WIND       PRES   REMARKS
29 PALMS       CLEAR     77  43  29 W8        30.11R
BARSTOW/DAGGET CLEAR     71  43  36 W13       30.05R
BISHOP         CLEAR     54  30  40 N7        30.19R
CHINA LAKE     CLEAR     64  28  25 CALM      30.05R
EDWARDS AFB    CLEAR     65  41  41 SW9       30.07R
MOJAVE         FAIR      73  37  27 W6        30.09S
NEEDLES        CLEAR     79  44  28 W8        29.94S
VICTORVILLE    CLEAR     66  45  45 SE8       30.13R

$$

CAZ039-040-281400-
VENTURA AND SANTA BARBARA COUNTY COAST


CITY           SKY/WX    TMP DP  RH WIND       PRES   REMARKS
CAMARILLO      CLEAR     65  52  62 CALM      29.98S
NWS OXNARD       N/A     64  52  65 CALM      29.98S
OXNARD AIRPORT CLEAR     65  56  72 CALM      29.99R
*POINT MUGU    CLEAR     64  56  75 W5        29.99S
SBA APT/GOLETA CLEAR     62  57  83 CALM      29.98S
*SANTA BARBARA   N/A     67  60  79 CALM      30.06S
*VENTURA         N/A     63  49  61 CALM      30.02S

$$

CAZ044-045-281400-
VENTURA COUNTY VALLEYS


CITY           SKY/WX    TMP DP  RH WIND       PRES   REMARKS
*SIMI VALLEY     N/A     63  49  61 CALM      29.95S
*OJAI            N/A     57  49  76 CALM      29.95R
*FILLMORE        N/A     58  52  80 CALM      29.90S

$$

CAZ053-281400-
VENTURA COUNTY MOUNTAINS


CITY           SKY/WX    TMP DP  RH WIND       PRES   REMARKS
*LOCKWOOD VLY    N/A     46  36  66 MISG        N/A
*ROSE VALLEY     N/A     46  39  76 MISG        N/A

$$

CAZ034-035-036-281400-
CENTRAL COAST AND SANTA YNEZ VALLEY


CITY           SKY/WX    TMP DP  RH WIND       PRES   REMARKS
SAN LUIS OBISP CLOUDY    60  58  92 N5        30.03S
SANTA MARIA    CLOUDY    63  59  87 NW3       30.04S FOG

CITY           SKY/WX    TMP DP  RH WIND       PRES   REMARKS
*CAL POLY SLO    N/A     57  57 100 NE3         N/A
*LOMPOC        CLOUDY    59  55  88 W5        30.04S VSB 3/4
*PISMO BEACH     N/A     59  58  95 NE1       30.04S
*SANTA YNEZ    FAIR      55  54  94 CALM      30.03S FOG

$$

CAZ037-038-051-281400-
SAN LUIS OBISPO COUNTY INTERIOR AND CUYAMA VALLEY


CITY           SKY/WX    TMP DP  RH WIND       PRES   REMARKS
*CUYAMA          N/A     61  45  56 E2        29.98S
PASO ROBLES    CLEAR     51  44  77 CALM      30.06S

$$

CAZ032-033-061-281400-
SOUTHERN DESERTS


CITY           SKY/WX    TMP DP  RH WIND       PRES   REMARKS
BLYTHE         CLEAR     82  54  37 CALM      29.89R
IMPERIAL       CLEAR     79  54  41 W8        29.86S
PALM SPRINGS   CLEAR     81  56  42 SW3       29.93R
THERMAL        CLEAR     86  51  29 NW7       29.86R

$$

ELSEWHERE ACROSS THE WESTERN UNITED STATES AND MEXICO


CITY           SKY/WX    TMP DP  RH WIND       PRES   REMARKS
DENVER, CO     PTCLDY    54  49  83 S13       30.14R
GRAND CANYON,  CLEAR     41  39  93 NE3       30.36
HONOLULU, HI   PTCLDY    75  66  73 W5        29.89F
KAHULUI, MAUI  CLEAR     73  63  68 CALM      29.90S
LAKE TAHOE, CA CLEAR     47  39  74 S3        30.34S
LAS VEGAS, NV  CLEAR     77  37  23 SW8       30.01R
MAMMOTH LAKES, FAIR      39  27  60 N3        30.40S
MEXICO CITY, M CLEAR     59  48  67 E3        30.33R
PHOENIX, AZ    PTCLDY    84  62  47 SW3       29.92S
PORTLAND, OR   MOCLDY    60  57  89 NW3       30.10R
RENO, NV       CLEAR     62  43  49 CALM      30.22S
SALT LAKE CITY PTCLDY    59  52  77 SE7       30.21S
SAN DIEGO, CA  CLEAR     73  62  68 CALM      30.00R
SAN FRANCISCO, MOCLDY    60  58  92 W6        30.06S
SAN JOSE, CA   CLOUDY    62  58  86 NW5       30.06R
SEATTLE, WA    PTCLDY    59  55  87 S5        30.09S
TIJUANA, MEX   CLEAR     68  50  52 CALM      30.01S

$$

STATION/POSITION TIME  TEMP    WIND        PRES    VSBY  WAVE
                       AIR SEA DIR/SP/G                  HT/PER
                 (UTC) (F)     (DEG/KT/KT) (MB)    (MI)  (FT/S)
POINT ARGUELLO B NOT AVBL
WEST SANTA BARBA 1300   61 62  300/ 17/ 21 1015.1R         6/13
POINT CONCEPTION NOT AVBL
EAST SANTA BARBA 1300   66 67  250/  8/ 10 1015.4S
SANTA MONICA BAY 1300   70 71  270/  6/  8 1015.2S         5/12



USA.gov is the U.S. government's official web portal to all federal, state and local government web resources and services.